This is the latest recevied weather packets stored in our database for station/object KB1YYC. If no packets are shown the sender has not sent any weather packets the latest 10 day(s).
| Time | Temp. | Humidity | Pressure | Rain* | Wind** | Luminosity | Snow |
|---|---|---|---|---|---|---|---|
| 1778180546 | 16.67° C | 32% | 1005.1 hPa | 0 mm | - | 441 W/m² | - |
| 1778180244 | 16.67° C | 32% | 1005.1 hPa | 0 mm | - | 439 W/m² | - |
| 1778179940 | 16.67° C | 31% | 1005 hPa | 0 mm | - | 342 W/m² | - |
| 1778179638 | 16.67° C | 34% | 1005.1 hPa | 0 mm | - | 579 W/m² | - |
| 1778179336 | 16.67° C | 33% | 1005 hPa | 0 mm | - | 561 W/m² | - |
| 1778179032 | 16.67° C | 33% | 1005.2 hPa | 0 mm | - | 415 W/m² | - |
| 1778178729 | 16.67° C | 33% | 1005 hPa | 0 mm | - | 688 W/m² | - |
| 1778178426 | 15.56° C | 35% | 1005.3 hPa | 0 mm | - | 733 W/m² | - |
| 1778178121 | 16.11° C | 35% | 1005.2 hPa | 0 mm | - | 99 W/m² | - |
| 1778177818 | 16.67° C | 35% | 1005.2 hPa | 0 mm | - | 713 W/m² | - |
| 1778177515 | 16.11° C | 36% | 1005 hPa | 0 mm | - | 274 W/m² | - |
| 1778177211 | 16.11° C | 35% | 1005.2 hPa | 0 mm | - | 698 W/m² | - |
| 1778176909 | 16.67° C | 32% | 1005.3 hPa | 0 mm | - | 719 W/m² | - |
| 1778176604 | 16.67° C | 35% | 1005 hPa | 0 mm | - | 731 W/m² | - |
| 1778176301 | 16.67° C | 36% | 1005.2 hPa | 0 mm | - | 760 W/m² | - |
| 1778175998 | 16.67° C | 43% | 1005.4 hPa | 0 mm | - | 238 W/m² | - |
| 1778175697 | 15.56° C | 44% | 1005.5 hPa | 0 mm | - | 783 W/m² | - |
| 1778175394 | 15.56° C | 44% | 1005.3 hPa | 0 mm | - | 770 W/m² | - |
| 1778175091 | 15.56° C | 47% | 1005.6 hPa | 0 mm | - | 774 W/m² | - |
| 1778174786 | 16.11° C | 45% | 1005.5 hPa | 0 mm | - | 796 W/m² | - |
| 1778174484 | 15° C | 46% | 1005.5 hPa | 0 mm | - | 789 W/m² | - |
| 1778174179 | 14.44° C | 46% | 1005.8 hPa | 0 mm | - | 872 W/m² | - |
| 1778173876 | 15.56° C | 47% | 1005.8 hPa | 0 mm | - | 203 W/m² | - |
| 1778173573 | 16.11° C | 50% | 1005.8 hPa | 0 mm | - | 816 W/m² | - |
| 1778173270 | 16.11° C | 47% | 1005.9 hPa | 0 mm | - | 820 W/m² | - |
* Rain latest hour (hover to see other rain measurements)
** Current wind speed in m/s (hover to see current wind gust speed)